• în România
  • Lista ţărilor
  • Pe 7 zile
  • Temperatura apei
  • Hartă satelitară
  • Meteo pe hartă
  • Widget-uri
  • user-avatar
    Intrare

    Meteo pe oră la Yevlakh

    Astăzi, 17 August, Vineri

    Timp Temperatura Precipitaţii Vânt Presiune Umiditate
    00:00 +28°C° 0 mm 3 m/s 759 mmHg 49%
    01:00 +27°C° 0 mm 2 m/s 759 mmHg 50%
    02:00 +27°C° 0 mm 2 m/s 759 mmHg 52%
    03:00 +27°C° 0 mm 1 m/s 758 mmHg 53%
    04:00 +27°C° 0 mm 1 m/s 758 mmHg 53%
    05:00 +27°C° 0 mm 1 m/s 758 mmHg 53%
    06:00 +25°C° 0 mm 0 m/s 758 mmHg 53%
    07:00 +29°C° 0 mm 1 m/s 758 mmHg 48%
    08:00 +30°C° 0 mm 1 m/s 758 mmHg 44%
    09:00 +32°C° 0 mm 2 m/s 757 mmHg 39%
    10:00 +34°C° 0 mm 2 m/s 757 mmHg 37%
    11:00 +35°C° 0 mm 2 m/s 756 mmHg 34%
    12:00 +37°C° 0 mm 2 m/s 756 mmHg 32%
    13:00 +37°C° 0 mm 2 m/s 755 mmHg 30%
    14:00 +38°C° 0 mm 2 m/s 755 mmHg 29%
    15:00 +39°C° 0 mm 2 m/s 755 mmHg 27%
    16:00 +38°C° 0 mm 2 m/s 755 mmHg 28%
    17:00 +38°C° 0 mm 2 m/s 755 mmHg 29%
    18:00 +38°C° 0 mm 2 m/s 755 mmHg 30%
    19:00 +36°C° 0 mm 3 m/s 755 mmHg 33%
    20:00 +34°C° 0 mm 3 m/s 755 mmHg 36%
    21:00 +33°C° 0 mm 3 m/s 755 mmHg 39%
    22:00 +31°C° 0 mm 3 m/s 755 mmHg 42%
    23:00 +30°C° 0 mm 3 m/s 755 mmHg 44%

    Mâine, 18 August, Sâmbătă

    Timp Temperatura Precipitaţii Vânt Presiune Umiditate
    00:00 +29°C° 0 mm 2 m/s 755 mmHg 47%
    01:00 +29°C° 0 mm 2 m/s 755 mmHg 48%
    02:00 +28°C° 0 mm 2 m/s 755 mmHg 49%
    03:00 +28°C° 0 mm 1 m/s 755 mmHg 50%
    04:00 +28°C° 0 mm 1 m/s 755 mmHg 50%
    05:00 +28°C° 0 mm 1 m/s 755 mmHg 50%
    06:00 +28°C° 0 mm 1 m/s 755 mmHg 50%
    07:00 +30°C° 0 mm 1 m/s 755 mmHg 45%
    08:00 +32°C° 0 mm 2 m/s 755 mmHg 41%
    09:00 +34°C° 0 mm 2 m/s 754 mmHg 37%
    10:00 +36°C° 0 mm 2 m/s 754 mmHg 34%
    11:00 +37°C° 0 mm 2 m/s 754 mmHg 31%
    12:00 +38°C° 0 mm 2 m/s 753 mmHg 28%
    13:00 +39°C° 0,1 mm 2 m/s 753 mmHg 26%
    14:00 +39°C° 0,1 mm 3 m/s 752 mmHg 25%
    15:00 +40°C° 0,1 mm 3 m/s 752 mmHg 23%
    16:00 +40°C° 0 mm 3 m/s 752 mmHg 24%
    17:00 +40°C° 0 mm 4 m/s 752 mmHg 25%
    18:00 +38°C° 0 mm 4 m/s 752 mmHg 27%
    19:00 +37°C° 0 mm 4 m/s 753 mmHg 31%
    20:00 +35°C° 0 mm 4 m/s 753 mmHg 35%
    21:00 +33°C° 0 mm 5 m/s 754 mmHg 39%
    22:00 +32°C° 0 mm 4 m/s 754 mmHg 41%
    23:00 +31°C° 0 mm 3 m/s 754 mmHg 43%

    Poimâine, 19 August, Duminică

    Timp Temperatura Precipitaţii Vânt Presiune Umiditate
    00:00 +30°C° 0 mm 3 m/s 755 mmHg 45%
    01:00 +29°C° 0,2 mm 2 m/s 755 mmHg 47%
    02:00 +29°C° 0,2 mm 2 m/s 755 mmHg 49%
    03:00 +28°C° 0,2 mm 2 m/s 755 mmHg 51%
    04:00 +28°C° 0,3 mm 1 m/s 755 mmHg 51%
    05:00 +28°C° 0,3 mm 1 m/s 755 mmHg 51%
    06:00 +28°C° 0,3 mm 1 m/s 755 mmHg 51%
    07:00 +30°C° 0,3 mm 2 m/s 755 mmHg 47%
    08:00 +31°C° 0,3 mm 3 m/s 755 mmHg 44%
    09:00 +33°C° 0,3 mm 3 m/s 755 mmHg 41%
    10:00 +35°C° 0 mm 3 m/s 755 mmHg 37%
    11:00 +36°C° 0 mm 2 m/s 755 mmHg 34%
    12:00 +37°C° 0 mm 2 m/s 755 mmHg 30%
    13:00 +38°C° 0,1 mm 2 m/s 754 mmHg 28%
    14:00 +38°C° 0,1 mm 2 m/s 754 mmHg 27%
    15:00 +39°C° 0,1 mm 3 m/s 754 mmHg 25%
    16:00 +38°C° 0,1 mm 3 m/s 754 mmHg 27%
    17:00 +36°C° 0,1 mm 3 m/s 755 mmHg 29%
    18:00 +35°C° 0,1 mm 3 m/s 755 mmHg 32%
    19:00 +34°C° 0,2 mm 4 m/s 756 mmHg 34%
    20:00 +33°C° 0,2 mm 5 m/s 756 mmHg 36%
    21:00 +30°C° 0,2 mm 6 m/s 757 mmHg 38%
    22:00 +29°C° 0,2 mm 6 m/s 757 mmHg 41%
    23:00 +29°C° 0,2 mm 5 m/s 757 mmHg 43%

    20 August, Luni

    Timp Temperatura Precipitaţii Vânt Presiune Umiditate
    00:00 +28°C° 0,2 mm 5 m/s 757 mmHg 45%
    01:00 +27°C° 0 mm 5 m/s 758 mmHg 48%
    02:00 +27°C° 0 mm 4 m/s 758 mmHg 50%
    03:00 +26°C° 0 mm 4 m/s 758 mmHg 53%
    04:00 +26°C° 0 mm 4 m/s 758 mmHg 55%
    05:00 +26°C° 0 mm 4 m/s 759 mmHg 57%
    06:00 +25°C° 0 mm 4 m/s 759 mmHg 59%
    07:00 +27°C° 0 mm 5 m/s 759 mmHg 55%
    08:00 +28°C° 0 mm 5 m/s 759 mmHg 50%
    09:00 +29°C° 0 mm 6 m/s 759 mmHg 46%
    10:00 +30°C° 0 mm 6 m/s 759 mmHg 42%
    11:00 +32°C° 0 mm 6 m/s 759 mmHg 39%
    12:00 +34°C° 0 mm 6 m/s 759 mmHg 35%
    13:00 +34°C° 0 mm 6 m/s 759 mmHg 33%
    14:00 +35°C° 0 mm 6 m/s 758 mmHg 32%
    15:00 +35°C° 0 mm 6 m/s 758 mmHg 30%
    16:00 +34°C° 0 mm 6 m/s 758 mmHg 31%
    17:00 +33°C° 0 mm 6 m/s 759 mmHg 32%
    18:00 +32°C° 0 mm 6 m/s 759 mmHg 34%
    19:00 +30°C° 0 mm 6 m/s 759 mmHg 39%
    20:00 +28°C° 0 mm 5 m/s 760 mmHg 44%
    21:00 +27°C° 0 mm 5 m/s 761 mmHg 49%
    22:00 +26°C° 0 mm 4 m/s 761 mmHg 52%
    23:00 +25°C° 0 mm 3 m/s 761 mmHg 56%

    21 August, Marţi

    Timp Temperatura Precipitaţii Vânt Presiune Umiditate
    00:00 +25°C° 0 mm 3 m/s 761 mmHg 59%
    01:00 +24°C° 0 mm 2 m/s 760 mmHg 61%
    02:00 +24°C° 0 mm 2 m/s 760 mmHg 63%
    03:00 +24°C° 0 mm 2 m/s 760 mmHg 65%
    04:00 +24°C° 0 mm 1 m/s 760 mmHg 64%
    05:00 +24°C° 0 mm 1 m/s 761 mmHg 64%
    06:00 +24°C° 0 mm 1 m/s 761 mmHg 63%
    07:00 +26°C° 0 mm 1 m/s 761 mmHg 57%
    08:00 +27°C° 0 mm 2 m/s 761 mmHg 51%
    09:00 +29°C° 0 mm 2 m/s 760 mmHg 46%
    10:00 +30°C° 0 mm 2 m/s 760 mmHg 42%
    11:00 +31°C° 0 mm 2 m/s 760 mmHg 38%
    12:00 +34°C° 0 mm 3 m/s 759 mmHg 35%
    13:00 +34°C° 0 mm 3 m/s 759 mmHg 32%
    14:00 +35°C° 0 mm 3 m/s 758 mmHg 30%
    15:00 +36°C° 0 mm 4 m/s 758 mmHg 28%
    16:00 +36°C° 0 mm 4 m/s 758 mmHg 29%
    17:00 +35°C° 0 mm 4 m/s 759 mmHg 29%
    18:00 +35°C° 0 mm 4 m/s 759 mmHg 30%
    19:00 +33°C° 0 mm 4 m/s 759 mmHg 33%
    20:00 +32°C° 0 mm 4 m/s 760 mmHg 37%
    21:00 +29°C° 0 mm 4 m/s 760 mmHg 40%
    22:00 +28°C° 0 mm 3 m/s 760 mmHg 42%
    23:00 +27°C° 0 mm 3 m/s 760 mmHg 44%

    22 August, Miercuri

    Timp Temperatura Precipitaţii Vânt Presiune Umiditate
    00:00 +27°C° 0 mm 2 m/s 760 mmHg 47%
    01:00 +26°C° 0 mm 2 m/s 760 mmHg 48%
    02:00 +26°C° 0 mm 2 m/s 760 mmHg 50%
    03:00 +25°C° 0 mm 1 m/s 760 mmHg 51%
    04:00 +25°C° 0 mm 1 m/s 760 mmHg 51%
    05:00 +25°C° 0 mm 1 m/s 761 mmHg 51%
    06:00 +26°C° 0 mm 1 m/s 761 mmHg 51%
    07:00 +27°C° 0 mm 1 m/s 761 mmHg 45%
    08:00 +29°C° 0 mm 1 m/s 760 mmHg 40%
    09:00 +31°C° 0 mm 1 m/s 760 mmHg 34%
    10:00 +32°C° 0 mm 2 m/s 760 mmHg 31%
    11:00 +35°C° 0 mm 2 m/s 759 mmHg 27%
    12:00 +36°C° 0 mm 3 m/s 759 mmHg 24%
    13:00 +37°C° 0 mm 3 m/s 759 mmHg 23%
    14:00 +38°C° 0 mm 4 m/s 758 mmHg 22%
    15:00 +38°C° 0 mm 4 m/s 758 mmHg 21%
    16:00 +37°C° 0 mm 5 m/s 758 mmHg 23%
    17:00 +37°C° 0 mm 5 m/s 759 mmHg 25%
    18:00 +36°C° 0 mm 6 m/s 759 mmHg 27%
    19:00 +34°C° 0 mm 6 m/s 760 mmHg 29%
    20:00 +32°C° 0 mm 5 m/s 760 mmHg 32%
    21:00 +30°C° 0 mm 5 m/s 761 mmHg 34%
    22:00 +29°C° 0 mm 4 m/s 761 mmHg 36%
    23:00 +28°C° 0 mm 3 m/s 761 mmHg 38%
    Arată mai mult